This demonstration page uses our WeatherBlox Daily Observations layout. Learn more.

Left ArrowRight Arrow

Hourly Observations for October 11, 2022

Temp ( °F °C ) Dew Point ( °F °C ) Humidity (%) Winds ( mph kmh ) Pressure ( in mb ) Visibility ( mi km ) Precip ( " mm )
12:20 am 00:20 Cloudy with Light Rain 61 16.1 42 5.6 50 50 NW 26 43 29.51 999 10 16 0.01 0.13
12:53 am 00:53 Cloudy 61 16.1 42 5.6 50 50 WNW 23 37 29.56 1001 10 16 0.01 0.13
1:53 am 01:53 Cloudy 52 11.1 45 7.2 77 77 N 20 31 29.63 1003 10 16 0.00 0.00
2:13 am 02:13 Cloudy 51 10.6 46 7.8 83 83 NW 20 31 29.70 1006 10 16 0.00 0.00
2:28 am 02:28 Cloudy with Light Rain 50 10 45 7.2 83 83 NW 15 24 29.73 1007 9 14 0.01 0.13
2:53 am 02:53 Cloudy 49 9.4 46 7.8 90 90 WNW 13 20 29.73 1007 10 16 0.02 0.51
3:53 am 03:53 Cloudy 48 8.9 43 6.1 83 83 WNW 7 11 29.73 1007 10 16 0.01 0.25
4:53 am 04:53 Partly Cloudy 46 7.8 41 5 82 82 WNW 10 17 29.78 1008 10 16 0.00 0.00
5:53 am 05:53 Partly Cloudy 45 7.2 37 2.8 74 74 W 9 15 29.83 1010 10 16 0.00 0.00
6:53 am 06:53 Mostly Cloudy 42 5.6 32 0 67 67 WSW 9 15 29.88 1012 10 16 0.00 0.00
7:53 am 07:53 Cloudy 43 6.1 36 2.2 76 76 SW 12 19 29.91 1013 10 16 0.00 0.00
8:53 am 08:53 Cloudy 46 7.8 37 2.8 71 71 W 13 20 29.92 1013 10 16 0.00 0.00
9:53 am 09:53 Partly Cloudy 48 8.9 38 3.3 68 68 WSW 15 24 29.93 1014 10 16 0.00 0.00
10:53 am 10:53 Mostly Cloudy 51 10.6 34 1.1 52 52 W 14 22 29.92 1013 10 16 0.00 0.00
11:53 am 11:53 Cloudy 54 12.2 33 0.6 45 45 W 14 22 29.92 1013 10 16 0.00 0.00
12:53 pm 12:53 Cloudy 53 11.7 30 -1.1 41 41 WSW 17 28 29.92 1013 10 16 0.00 0.00
1:53 pm 13:53 Mostly Cloudy 57 13.9 29 -1.7 34 34 WSW 16 26 29.90 1012 10 16 0.00 0.00
2:53 pm 14:53 Sunny 58 14.4 28 -2.2 32 32 W 15 24 29.88 1012 10 16 0.00 0.00
3:53 pm 15:53 Sunny 60 15.6 29 -1.7 30 30 W 16 26 29.87 1011 10 16 0.00 0.00
4:53 pm 16:53 Sunny 59 15 29 -1.7 32 32 W 15 24 29.85 1011 10 16 0.00 0.00
5:53 pm 17:53 Sunny 58 14.4 30 -1.1 34 34 WSW 10 17 29.84 1011 10 16 0.00 0.00
6:53 pm 18:53 Clear 49 9.4 33 0.6 54 54 S 8 13 29.84 1010 10 16 0.00 0.00
7:53 pm 19:53 Clear 47 8.3 33 0.6 58 58 SSW 7 11 29.83 1010 10 16 0.00 0.00
8:53 pm 20:53 Mostly Cloudy 50 10 34 1.1 54 54 NE 6 9 29.83 1010 10 16 0.00 0.00
9:53 pm 21:53 Mostly Cloudy 53 11.7 30 -1.1 41 41 NNE 16 26 29.88 1012 10 16 0.00 0.00
10:53 pm 22:53 Mostly Clear 52 11.1 24 -4.4 33 33 N 18 30 29.95 1014 10 16 0.00 0.00
11:53 pm 23:53 Mostly Cloudy 51 10.6 23 -5 33 33 N 13 20 30.01 1016 10 16 0.00 0.00

Powered by AerisWeather